Tracking 31027 objects as of 19-Jul-2025
HD Live streaming from Space Station
objects crossing your sky now

RADUGA 6

Track RADUGA 6 now!
RADUGA 6 is classified as:


NORAD ID: 11708
Int'l Code: 1980-016A
Perigee: 35,780.8 km
Apogee: 35,798.4 km
Inclination: 6.5 °
Period: 1,435.9 minutes
Semi major axis: 42160 km
RCS: 1.2589 m2 (large)
Launch date: February 20, 1980
Source: Commonwealth of Independent States (former USSR) (CIS)
Launch site: TYURATAM MISSILE AND SPACE COMPLEX (TTMTR)
Your satellite tracking list
ST5-A
Track 1 satellite(s)




NASA's NSSDC Master Catalog

Two Line Element Set (TLE):
1 11708U 80016A   25199.84487735 -.00000329  00000-0  00000+0 0  9998
2 11708   6.5368 289.9028 0002091 279.7350 138.1613  1.00286467118805
Source of the keplerian elements: AFSPC